Location: Cahoon Acres
(40.8736°N, 111.8994°W)
Time: 12:47:47
(UTC+00:00)

SR - Pass Details

Date: 11 June 2020
Orbit: 583 x 872 km, 66.7° (Epoch: 14 July)

Event Time Altitude Azimuth Distance (km) Brightness Sun altitude
Rises 04:56:24 0° 328° (NNW) 2,847 ? -17.0°
Reaches altitude 10° 04:58:40 10° 327° (NNW) 1,923 ? -17.3°
Maximum altitude 05:02:56 73° 242° (WSW) 613 ? -17.8°
Enters shadow 05:04:30 37° 167° (SSE) 906 ? -17.9°
Drops below altitude 10° 05:07:10 10° 158° (SSE) 1,905 - -18.2°
Sets 05:09:24 0° 157° (SSE) 2,818 - -18.4°
